Tracking 22459 objects as of 3-Mar-2021
HD Live streaming from Space Station
objects crossing your sky now

COSMOS 1375 DEB

Track COSMOS 1375 DEB now!
10-day predictions


NORAD ID: 17799
Int'l Code: 1982-055AR
Perigee: 901.1 km
Apogee: 950.4 km
Inclination: 65.8 °
Period: 103.4 minutes
Semi major axis: 7296 km
RCS: 0.043 m2 (small)
Launch date: June 6, 1982
Source: Commonwealth of Independent States (former USSR) (CIS)
Launch site: PLESETSK MISSILE AND SPACE COMPLEX (PKMTR)

Note: This is SATELLITE DEBRIS
aabbcc
Your satellite tracking list
Your tracking list is empty




NASA's NSSDC Master Catalog

Two Line Element Set (TLE):
1 17799U 82055AR  21062.44206015  .00000187  00000-0  20829-3 0  9996
2 17799  65.8379 206.7098 0033783 295.6463 138.5846 13.92856834790543
Source of the keplerian elements: AFSPC